Theta_e
302 296 293 296 298 300 299 298 297 301 304 302 302 303 306 309 310 309 310 311 312 313 319 323 333 342 346 347 352 346 353 354 356 353 351 351 350 352 352 354 355 355 355 356
297 293 298 299 299 299 299 298 298 301 303 302 302 302 306 308 309 310 311 312 313 314 319 322 324 329 337 346 353 351 346 345 348 351 349 348 350 350 350 352 351 350 352 356
296 298 301 299 299 298 299 297 298 298 302 303 302 300 303 307 308 310 312 312 314 315 318 321 322 326 323 330 343 352 353 353 352 352 339 332 345 350 348 348 348 349 351 350
299 303 300 300 298 300 296 301 300 299 298 294 302 293 301 304 305 307 310 311 314 315 319 321 322 324 326 326 334 344 356 354 355 356 350 349 342 342 345 345 346 346 349 349
297 299 299 298 299 302 298 303 301 301 299 298 298 295 300 303 302 305 308 311 315 317 317 318 319 322 324 327 327 336 342 350 355 355 355 349 348 346 348 345 349 352 353 354
300 305 303 301 302 303 303 300 300 300 298 292 297 296 297 301 303 305 309 313 315 317 319 320 320 321 321 322 323 333 342 346 349 352 352 353 351 351 349 346 348 347 347 343
299 299 303 304 300 304 301 299 291 290 290 290 298 296 298 304 305 308 310 313 316 319 320 321 322 321 320 322 326 327 338 341 345 347 349 351 353 353 353 350 346 344 338 337
292 291 300 303 301 298 299 299 292 286 288 292 297 292 300 306 311 312 312 314 317 319 322 323 324 324 323 321 324 332 335 343 348 350 349 351 354 350 349 349 342 338 335 335
294 293 302 303 304 303 299 295 302 295 296 292 296 299 303 308 309 310 311 313 316 319 321 323 325 325 325 327 328 334 339 344 347 348 348 351 349 347 342 341 341 335 339 334
301 292 301 304 306 305 302 304 295 296 288 287 293 294 296 303 305 308 309 311 314 317 319 321 324 327 328 332 335 337 337 338 340 341 341 339 338 337 338 339 338 338 339 337
303 300 298 302 300 299 299 299 300 300 297 290 289 293 306 305 307 308 310 311 313 314 315 317 320 323 326 329 330 330 330 329 330 332 333 334 334 335 337 337 337 338 340 338
305 300 295 297 304 305 304 302 302 295 293 297 296 295 309 309 310 311 310 312 313 314 315 316 317 318 320 322 323 326 328 327 329 330 332 333 334 334 336 335 335 336 335 335
306 300 293 294 300 304 300 302 303 303 301 295 292 296 309 310 310 311 311 312 313 315 316 317 318 318 318 320 320 321 321 321 323 324 325 328 328 330 332 332 332 332 331 330
305 302 297 289 293 301 298 300 302 301 297 296 296 299 303 305 306 309 310 312 314 314 314 315 316 318 317 318 318 319 318 318 319 319 321 322 323 323 324 325 325 325 325 325
304 296 298 298 297 297 297 297 298 297 299 295 296 296 300 302 303 304 306 307 308 310 311 313 314 316 315 315 314 314 314 314 316 316 316 317 318 318 318 319 320 321 321 321
302 296 297 295 295 295 294 296 297 297 297 296 296 295 302 303 306 306 307 307 307 308 309 310 312 312 311 311 312 311 312 311 312 312 312 313 314 314 315 316 316 317 317 317
296 296 292 287 291 291 288 293 294 295 297 295 292 298 304 302 303 303 304 306 307 307 307 307 308 309 310 310 310 309 310 310 310 310 310 310 311 310 311 312 312 312 313 314
295 294 294 289 290 283 293 299 298 297 298 300 301 301 302 302 303 304 305 305 304 305 306 306 307 308 309 309 309 309 308 308 308 308 308 308 308 308 309 309 309 310 310 310
298 295 291 288 288 291 292 297 297 296 296 302 301 301 301 303 303 301 304 303 304 304 305 306 307 307 307 307 307 307 307 307 306 306 306 306 305 305 305 306 307 308 308 308
296 298 293 289 282 283 295 299 303 302 293 303 302 301 301 301 295 298 304 302 304 305 306 305 305 305 307 307 307 305 305 305 304 304 304 305 305 305 305 306 306 306 306 306
289 291 288 287 285 291 298 301 302 289 294 303 303 302 301 300 300 301 303 304 305 305 304 305 305 305 305 306 305 303 303 302 304 304 304 304 304 304 305 305 305 304 303 302
290 289 289 290 286 284 301 300 294 301 305 304 303 302 302 301 300 300 302 304 303 303 304 304 303 303 304 304 303 301 301 303 303 302 302 302 303 303 303 303 301 297 295 293
290 295 291 293 294 301 304 303 306 306 302 303 303 303 303 302 302 302 301 302 302 302 301 302 301 301 302 302 302 300 301 301 300 300 301 301 301 301 299 296 293 292 293 292
296 300 296 294 299 300 302 305 305 305 303 303 303 302 302 300 300 299 300 300 300 300 299 300 299 299 299 300 300 300 300 299 298 297 297 298 292 291 293 295 294 292 291 290
296 298 295 295 298 300 301 301 301 301 301 300 300 300 299 299 298 298 298 298 298 298 298 298 297 297 297 298 298 298 297 295 293 293 290 289 290 290 291 291 291 291 293 293
298 295 292 291 299 299 299 301 300 299 298 299 298 298 297 297 296 297 297 297 295 294 294 294 295 295 296 295 294 294 292 290 287 287 288 288 289 289 290 290 291 292 291 291
Wind_Speed
16 13 17 19 17 15 4 8 10 11 8 10 14 12 15 13 9 13 15 14 14 16 13 8 6 9 11 10 15 10 14 16 13 13 9 2 8 7 10 10 10 9 11 12
10 17 14 10 13 13 11 11 12 12 6 5 9 15 14 10 8 6 9 10 11 15 17 8 9 10 11 14 21 14 12 14 12 8 8 5 3 5 6 6 8 6 12 11
13 2 13 14 13 12 12 13 12 13 11 13 15 16 15 7 6 3 6 5 5 11 17 12 7 9 8 10 11 14 17 17 16 13 7 7 2 4 10 12 8 8 13 10
14 10 11 17 15 13 13 12 13 14 14 11 5 11 5 1 6 5 1 5 6 5 13 13 12 13 12 20 10 11 11 15 13 11 10 15 11 13 12 9 8 10 11 10
12 12 17 14 16 13 13 8 10 12 13 14 15 10 11 3 11 7 3 3 7 7 5 10 13 14 18 12 15 13 12 14 15 17 15 13 16 10 7 5 10 7 7 8
15 12 13 17 15 10 3 7 9 9 12 14 16 16 12 9 6 3 1 5 7 8 9 9 6 9 12 10 12 10 13 13 14 15 16 17 15 11 9 9 9 8 7 7
13 13 12 8 11 14 9 9 8 11 11 11 6 8 11 6 3 3 5 6 7 7 7 9 9 7 5 8 9 9 12 14 14 15 16 16 13 14 14 15 11 12 9 8
13 14 18 15 18 13 16 14 11 10 10 10 8 8 5 5 3 1 2 4 5 8 9 10 10 9 8 4 4 8 10 10 10 13 12 11 13 10 9 11 11 9 9 9
12 13 6 8 17 19 16 9 14 15 9 10 6 10 7 8 7 4 3 4 7 9 11 12 11 9 7 4 1 3 5 7 11 11 11 12 12 11 10 12 11 8 8 8
9 4 12 11 7 7 15 5 11 11 17 17 10 8 7 11 8 4 4 5 6 7 10 11 12 12 10 9 9 9 9 10 11 12 11 10 11 11 11 10 11 9 9 9
11 10 8 9 12 10 9 11 11 9 6 10 11 2 11 8 3 3 3 5 5 7 8 9 11 11 11 12 12 11 10 10 10 10 9 9 8 8 9 8 8 8 8 9
4 5 7 11 5 3 6 9 7 9 13 8 10 6 5 4 2 2 4 4 5 4 6 8 8 9 9 9 9 9 7 8 7 6 6 7 7 6 5 5 5 5 7 8
7 6 8 6 12 9 10 12 9 7 5 12 10 4 6 7 3 2 2 4 0 2 2 4 6 8 8 8 8 8 9 8 7 6 5 6 5 3 2 2 3 5 6 8
3 6 7 1 4 1 11 10 13 11 10 12 12 12 11 6 3 4 4 6 8 5 8 8 7 4 6 8 9 9 8 8 7 6 6 6 6 5 4 5 6 7 8 10
2 6 5 1 1 2 3 6 9 10 10 11 10 12 10 10 13 14 15 13 14 13 11 10 6 5 3 3 6 6 7 8 7 7 7 7 6 6 6 6 7 8 10 11
1 4 6 11 3 8 13 14 15 16 15 16 15 16 14 9 10 11 10 12 12 12 5 3 2 7 8 8 7 6 8 8 7 7 7 7 8 8 9 10 11 12 13 14
4 5 6 9 2 6 12 15 18 16 13 11 12 4 8 6 6 5 5 6 7 8 4 5 6 8 7 7 7 7 8 8 8 8 9 9 10 11 12 13 14 15 16 16
4 5 3 2 3 8 8 2 1 4 2 3 2 3 2 3 3 6 9 8 8 7 5 6 6 6 7 7 7 7 8 8 9 10 11 11 12 14 14 15 15 16 16 17
5 4 3 3 4 9 5 4 1 3 2 3 6 2 2 3 4 3 6 7 6 6 6 5 6 6 6 7 7 9 10 11 12 13 13 13 13 15 15 16 16 16 16 17
3 4 3 4 3 3 7 3 1 1 6 7 2 2 4 3 8 4 3 1 2 3 4 5 7 8 8 8 9 11 12 13 13 13 14 14 14 15 16 16 17 16 16 17
5 5 8 5 5 6 6 5 2 6 4 3 3 5 5 6 6 4 5 5 4 4 5 7 9 9 10 10 11 13 13 14 13 14 14 15 15 16 16 16 14 14 15 15
7 7 5 7 6 7 5 6 6 5 2 3 4 3 3 4 5 7 9 9 8 9 10 11 11 11 11 12 12 14 14 14 14 14 15 15 15 12 12 15 14 14 13 12
5 5 3 6 1 4 1 5 4 5 5 4 5 5 7 9 10 9 10 11 11 12 12 13 13 14 13 12 11 14 14 14 14 15 15 14 14 13 13 13 12 10 12 11
5 4 5 4 5 1 3 3 3 3 5 5 6 7 8 11 12 14 14 13 13 13 12 13 15 14 13 11 13 13 13 13 14 14 15 13 12 13 13 11 9 8 9 9
4 4 6 8 6 3 5 6 6 5 4 4 5 7 9 11 14 15 14 14 13 13 12 13 15 15 15 13 13 12 11 12 13 13 11 11 10 12 11 9 9 9 12 10
7 8 5 3 5 4 3 3 3 5 6 7 9 10 9 12 15 15 14 14 15 14 15 16 16 16 14 14 13 12 12 11 10 11 9 10 9 9 9 9 10 14 19 22
Wind_Direction
186 199 207 204 211 241 263 252 251 259 261 273 275 274 287 287 255 242 234 243 228 227 226 196 187 186 169 168 207 158 170 183 187 208 185 205 255 234 206 212 203 203 200 220
176 224 205 211 206 230 239 252 253 267 270 258 266 293 283 267 266 269 231 222 221 213 214 204 171 171 193 207 205 176 181 192 164 186 163 159 140 238 259 215 189 142 264 209
219 195 186 200 197 219 229 249 259 268 269 279 259 267 251 212 232 259 276 263 216 215 223 222 216 180 154 263 217 209 199 196 200 200 163 151 180 213 221 210 209 209 205 209
227 197 192 196 212 216 243 229 248 268 266 260 181 274 141 226 279 206 60 23 8 264 218 240 250 225 183 205 203 232 227 197 203 206 200 180 197 196 210 209 194 186 192 206
206 213 209 211 210 219 254 254 258 254 252 259 243 244 267 154 240 184 168 8 12 354 303 278 268 246 230 211 212 192 214 210 207 192 202 191 211 215 170 187 180 183 169 199
217 208 218 221 214 222 170 240 229 252 251 239 241 244 248 222 221 145 115 10 12 355 331 321 265 261 267 266 248 216 185 203 194 195 199 209 201 203 167 185 175 167 156 177
215 214 216 236 199 199 213 235 225 214 217 242 222 228 247 69 109 337 337 350 8 0 10 353 348 318 245 238 240 234 215 194 186 193 194 196 186 188 185 171 176 165 173 174
214 207 214 208 225 230 210 227 249 236 238 230 141 226 224 95 113 91 24 6 8 20 21 16 15 1 341 293 260 245 220 205 184 186 180 175 179 185 187 176 163 175 172 179
213 215 150 199 217 225 218 227 249 279 268 286 260 165 197 168 163 158 98 66 45 39 31 29 35 41 46 57 229 227 205 179 182 171 160 171 169 168 165 159 168 169 180 170
238 196 214 146 192 204 244 250 205 225 255 245 230 223 275 171 175 149 122 77 66 59 57 54 46 47 58 77 94 102 119 122 131 138 142 148 153 158 161 169 187 173 180 189
215 247 182 187 208 199 181 223 234 295 276 254 262 303 25 60 105 163 121 99 83 74 67 65 64 62 55 79 88 93 100 108 126 133 134 143 149 152 164 179 186 185 189 201
210 202 269 236 41 276 276 283 280 221 247 264 292 273 86 82 78 189 151 137 108 84 61 62 67 62 68 78 80 76 58 66 77 104 119 128 140 148 161 181 187 205 221 227
182 202 223 218 208 210 237 212 255 258 257 237 241 248 107 101 125 155 240 140 275 330 335 341 21 22 24 41 62 79 60 53 42 61 83 82 83 84 49 307 285 274 265 258
265 213 230 287 353 194 211 224 232 239 249 256 250 250 159 162 226 251 254 266 259 271 304 303 306 342 44 50 26 38 66 65 54 47 56 57 42 22 350 318 295 280 272 267
283 255 248 139 319 325 302 223 209 238 255 262 276 288 299 304 298 290 293 286 274 269 273 286 314 339 335 48 83 57 43 43 27 29 25 20 5 351 327 311 300 292 281 274
145 224 270 259 255 270 266 257 253 255 261 266 269 274 271 304 318 300 308 300 277 266 281 336 121 89 80 68 66 39 24 33 8 0 347 336 327 317 309 301 296 289 285 284
208 226 231 256 86 281 258 245 240 249 250 267 259 341 4 333 1 347 10 17 36 59 94 87 80 73 65 64 40 28 4 355 343 332 317 309 304 293 289 288 285 281 279 278
167 196 187 256 222 228 65 47 267 281 250 188 303 309 27 26 43 54 35 61 67 64 70 59 44 51 41 28 23 347 337 324 315 307 302 299 296 294 293 290 287 285 281 278
255 204 211 245 246 324 185 155 225 286 164 209 263 190 270 353 306 123 55 18 17 18 8 24 19 0 347 341 341 323 313 308 303 299 299 299 300 297 294 289 288 286 283 281
173 283 219 172 251 272 82 115 306 277 248 91 296 353 346 250 244 88 85 65 326 329 350 341 331 318 315 319 316 304 301 302 298 301 304 300 296 293 290 291 291 290 286 284
170 186 210 187 239 276 98 148 235 238 78 76 337 328 314 309 352 322 274 295 303 309 298 313 295 301 303 309 308 297 297 295 304 305 299 297 296 295 291 288 286 291 294 295
170 183 191 211 218 247 116 179 245 30 341 343 330 349 312 277 277 288 297 305 310 305 306 303 301 299 304 305 299 296 296 304 304 300 296 293 293 294 294 296 298 297 292 288
214 222 199 207 242 102 180 314 351 322 328 350 332 355 323 307 304 312 305 306 303 304 304 305 303 302 300 302 303 299 300 306 300 296 295 300 299 297 305 295 295 288 282 279
220 207 237 227 180 4 328 330 347 347 340 2 345 324 321 312 309 305 304 305 304 302 307 310 304 298 301 302 302 297 302 303 302 301 296 305 310 295 288 279 281 282 276 271
53 209 246 250 257 321 67 53 16 13 9 343 327 318 310 306 305 307 304 304 303 307 309 313 308 302 302 306 304 308 311 317 303 305 301 286 282 290 292 284 280 274 274 268
216 243 247 311 61 325 6 354 355 328 334 327 317 314 323 323 312 309 306 320 323 312 307 299 301 303 308 313 311 321 320 308 288 286 294 290 293 291 287 286 287 268 255 263